Location: Elk Horn Observatory
(36.6768°N, 80.8309°W)
Time: 05:45:03
(UTC-04:00)

Envisat - Pass Details

Date: 29 January 2019
Orbit: 764 x 766 km, 98.1° (Epoch: 15 October)

Event Time Altitude Azimuth Distance (km) Brightness Sun altitude
Rises 19:05:55 0° 164° (SSE) 3,216 6.2 -16.3°
Reaches altitude 10° 19:08:12 10° 164° (SSE) 2,293 5.4 -16.7°
Maximum altitude 19:13:16 84° 76° (ENE) 774 2.9 -17.7°
Drops below altitude 10° 19:18:22 10° 349° (N) 2,307 5.5 -18.7°
Sets 19:20:40 0° 349° (N) 3,237 6.3 -19.2°
